Theta_e
316 314 314 313 313 315 316 316 316 315 315 318 317 325 325 326 329 329 330 331 332 332 329 333 334 333 334 332 331 331 332 332 333 334 335 338 340 341 342 344 345 345 345 343
314 314 314 314 313 315 315 316 315 315 317 318 324 326 325 324 328 329 329 330 331 330 330 331 333 333 333 332 332 331 331 332 332 333 334 335 337 336 337 342 344 345 346 344
314 315 315 316 317 317 316 317 316 317 316 320 327 319 328 326 326 328 328 329 329 330 330 328 330 331 333 332 332 331 331 331 332 332 333 336 337 341 343 344 344 345 343 343
315 315 317 317 317 316 318 315 317 317 316 316 322 317 323 329 324 324 326 327 328 329 329 329 329 329 329 330 331 330 331 331 331 332 333 335 335 338 339 341 341 341 342 341
317 318 317 318 319 317 317 318 317 317 315 315 316 317 315 323 329 327 326 327 328 328 328 329 329 329 329 330 330 330 330 330 331 331 332 333 335 337 336 340 343 343 341 341
317 318 317 318 319 316 318 317 313 310 310 315 315 315 314 315 318 321 326 330 330 330 328 328 328 329 329 330 330 329 330 330 330 331 332 333 334 338 340 341 344 344 343 340
318 319 318 319 319 318 315 315 318 320 317 317 313 314 314 316 316 317 319 321 324 325 326 329 330 329 328 328 330 330 329 329 330 330 331 333 334 335 337 338 340 344 343 341
319 320 320 319 319 320 318 317 318 322 320 319 314 317 317 317 317 319 322 324 326 325 328 325 326 329 329 328 329 330 330 329 329 329 330 332 333 334 335 337 339 343 344 342
318 318 319 320 319 320 320 318 316 316 313 315 315 315 317 318 319 320 322 323 324 325 324 332 333 331 325 327 328 328 329 329 329 329 330 331 333 333 334 337 341 344 345 342
319 319 320 321 321 320 319 316 319 314 321 319 316 317 318 320 318 318 319 321 327 328 326 326 329 333 328 327 327 326 327 328 329 329 329 330 332 333 333 339 339 343 345 343
320 319 322 321 322 321 319 318 314 314 314 318 318 318 315 320 320 320 321 325 327 328 331 327 325 329 333 328 328 327 327 328 329 330 330 330 331 332 334 341 334 338 344 344
323 318 321 319 319 320 321 320 316 318 320 315 316 319 319 319 321 324 324 325 326 328 332 332 329 325 334 335 329 328 328 328 329 330 331 331 332 333 336 338 332 337 339 345
323 318 319 319 317 319 324 323 319 315 315 318 320 321 315 324 324 324 324 323 323 324 327 332 333 332 327 330 338 333 332 331 330 330 332 333 333 334 336 336 333 334 339 347
324 319 318 319 319 325 328 325 324 320 320 321 319 321 320 324 323 322 324 321 321 322 322 324 331 332 333 331 331 339 336 335 336 333 332 333 334 335 336 336 336 335 341 348
316 320 323 324 324 323 323 324 325 324 320 322 324 319 324 322 321 322 322 320 320 320 321 321 322 328 332 332 332 333 338 339 338 338 337 333 334 336 337 337 336 336 343 347
314 317 321 321 320 321 323 322 323 322 322 322 321 319 322 322 320 321 320 319 319 319 320 320 321 322 324 330 330 333 335 339 340 339 338 338 337 337 338 337 337 334 344 347
313 314 317 317 319 318 313 317 318 319 326 327 326 325 322 320 318 319 319 318 318 319 319 320 320 321 323 325 329 330 333 339 339 339 339 338 338 339 339 338 336 333 340 345
312 315 315 315 317 319 312 322 325 326 325 324 324 323 321 320 317 318 318 315 316 316 318 318 318 319 321 324 327 328 329 337 344 340 338 338 338 338 339 338 336 331 335 343
310 311 314 316 316 314 320 321 321 321 323 319 323 320 318 318 317 318 317 314 314 314 313 313 316 318 319 322 324 325 327 329 340 343 342 339 337 338 339 338 335 338 343 337
311 312 313 314 318 319 318 316 312 312 322 309 317 320 315 316 317 315 316 313 312 313 312 312 313 316 320 321 323 325 325 327 329 333 343 341 338 338 338 338 336 337 342 331
313 312 314 313 316 315 312 312 311 322 316 307 314 313 310 311 312 311 312 314 313 311 312 312 313 313 318 321 323 324 325 326 327 328 332 335 337 341 340 339 338 338 338 330
310 311 311 312 316 317 309 309 310 309 307 307 310 308 309 308 309 309 309 311 313 313 313 313 314 314 314 319 322 323 323 325 327 326 327 330 334 341 341 338 336 336 335 328
309 307 308 308 310 309 307 307 306 306 306 311 307 307 308 308 310 311 311 313 313 312 313 313 314 314 313 316 319 324 322 323 325 326 326 327 330 338 341 339 337 333 329 326
307 306 305 306 305 305 306 307 307 307 308 308 309 309 310 311 312 311 312 312 312 312 313 313 314 315 315 314 318 320 323 323 323 322 323 324 325 338 337 337 331 330 328 324
306 306 304 303 304 305 306 307 308 309 309 309 310 310 310 310 310 310 311 311 312 312 313 313 312 313 314 315 315 318 321 320 324 323 322 321 322 329 332 330 329 328 323 324
304 303 303 303 305 304 305 308 310 309 309 310 310 309 309 309 309 310 310 310 312 313 312 312 312 310 313 314 315 315 318 320 320 324 322 323 326 324 323 324 323 323 322 328
Wind_Speed
2 4 4 7 5 3 1 3 4 6 6 4 6 7 11 15 17 15 28 32 40 46 43 42 43 42 44 42 40 39 39 37 38 38 38 36 32 29 27 27 26 23 22 19
5 5 8 3 4 4 5 4 7 8 4 5 4 8 9 11 21 33 27 31 43 48 38 42 45 47 50 47 46 44 42 42 41 41 40 40 37 33 31 30 29 28 26 23
6 6 6 5 3 3 4 4 6 8 5 1 2 7 5 3 10 18 23 32 32 41 47 47 47 49 50 53 51 49 48 47 46 44 43 44 39 38 37 37 33 32 28 24
5 4 3 3 3 6 3 5 7 5 3 3 3 4 6 5 5 8 24 29 39 48 43 50 49 51 53 55 54 52 52 51 50 50 50 48 45 44 43 42 37 33 30 25
7 4 4 2 6 6 9 1 2 0 3 4 5 3 7 4 5 9 21 34 44 50 49 49 53 55 55 55 57 58 57 57 56 55 54 53 49 48 44 44 40 36 30 26
8 3 6 8 3 7 1 3 7 5 4 2 5 4 6 4 8 4 11 28 35 42 49 57 60 60 59 57 60 61 60 62 62 62 60 59 54 53 51 48 44 40 35 28
6 5 4 5 2 1 5 6 3 4 3 6 2 4 8 8 10 8 11 18 20 20 29 40 47 54 60 62 64 66 66 65 65 66 64 62 59 57 55 50 46 44 38 32
2 8 1 1 3 2 2 6 5 6 4 6 3 5 7 10 12 12 19 19 20 16 16 27 38 45 50 56 61 66 72 69 66 64 66 64 63 60 56 50 45 46 41 33
4 6 5 5 6 8 3 4 4 5 3 3 3 7 10 6 9 10 14 30 32 33 32 25 20 24 38 47 55 60 67 65 62 61 64 66 65 61 59 49 40 44 42 36
1 4 4 6 2 2 5 5 1 1 2 4 4 4 5 6 8 9 15 25 35 34 35 32 30 29 20 30 44 52 59 62 60 59 61 65 66 61 57 47 38 41 43 38
3 3 7 2 0 2 3 3 4 4 5 6 3 6 7 0 3 7 11 21 29 32 33 31 30 27 27 26 31 40 48 54 57 56 58 63 66 60 56 46 36 37 39 39
3 2 4 9 6 2 2 2 3 4 5 2 3 6 3 7 5 11 15 23 28 32 35 33 28 25 22 25 31 37 39 45 49 52 55 59 59 57 55 45 35 35 36 37
4 2 5 10 6 5 5 3 3 2 2 5 5 5 5 7 10 20 18 26 30 33 35 36 34 33 28 24 27 35 40 42 45 50 52 54 55 57 57 48 37 34 37 38
3 1 5 6 7 0 5 9 3 1 1 3 6 6 10 14 14 18 18 25 25 28 33 35 35 36 35 29 25 29 39 43 46 50 52 52 54 55 57 52 40 36 39 41
4 3 5 7 7 5 11 11 8 5 8 7 7 8 4 6 7 13 16 23 25 29 33 34 36 34 34 35 31 26 28 39 44 48 52 53 53 52 55 52 46 39 43 44
0 4 3 5 11 12 11 11 12 15 15 14 9 3 2 9 12 7 14 20 24 31 35 36 36 36 34 31 34 34 25 28 41 45 49 52 55 54 55 53 48 40 44 44
2 2 2 4 6 5 6 8 13 5 6 4 4 2 5 6 14 8 11 22 25 30 34 36 38 38 37 34 29 33 32 24 32 38 44 50 52 56 58 54 46 44 45 42
4 3 2 3 3 3 5 6 7 7 6 5 3 5 8 11 23 21 12 26 28 29 31 34 37 40 37 36 32 26 29 26 23 31 36 43 49 54 55 54 48 45 45 40
8 4 2 2 3 6 4 4 5 5 2 6 5 5 11 15 17 9 15 24 26 27 30 33 35 37 39 36 33 32 25 28 23 27 33 39 42 47 50 54 48 49 47 42
6 4 3 1 3 4 3 5 18 5 5 13 12 5 10 14 6 5 21 27 28 28 27 30 31 34 35 35 32 30 29 23 25 23 29 33 37 42 47 49 49 51 48 45
3 2 2 1 4 6 4 10 17 1 5 27 15 15 18 8 16 28 32 31 33 34 32 32 30 32 31 33 32 29 29 27 25 22 24 27 32 38 44 45 44 47 42 44
1 1 2 1 2 6 11 8 2 6 29 26 23 30 25 32 36 37 35 35 34 34 32 32 35 34 31 26 28 29 28 28 27 24 23 24 27 31 34 42 38 39 30 44
2 3 2 6 5 5 16 9 24 24 21 20 37 40 36 38 39 39 39 36 38 37 34 33 36 34 31 29 25 26 25 26 23 24 24 21 20 24 28 39 40 29 31 28
1 2 2 5 3 13 32 28 17 30 34 36 36 38 36 37 38 40 39 40 40 38 35 32 34 35 30 30 26 23 21 18 15 12 14 11 11 21 26 37 39 42 36 51
5 3 3 5 13 21 13 24 36 40 42 41 41 40 41 43 42 42 43 41 39 37 34 26 30 33 32 27 29 24 21 18 16 8 6 9 1 17 28 31 34 33 45 47
5 5 3 4 14 17 28 38 42 41 41 42 43 46 44 40 44 43 45 41 39 37 36 34 34 35 31 27 26 28 26 24 22 13 5 4 3 3 6 16 17 27 32 35
Wind_Direction
41 77 209 223 196 184 250 229 256 256 246 227 237 252 274 211 212 217 207 207 214 219 220 221 220 222 224 221 218 220 218 218 215 214 213 212 215 219 222 221 227 230 236 238
22 252 229 172 162 195 225 265 275 280 264 174 142 250 258 179 214 210 205 206 215 225 225 225 225 225 227 227 225 223 224 223 224 222 221 219 217 220 227 230 232 232 230 236
165 229 114 169 191 223 226 207 253 225 337 257 26 318 314 265 238 222 226 224 229 227 227 229 226 228 231 230 229 228 228 228 229 229 227 224 222 222 223 224 230 229 234 238
232 258 206 166 235 155 290 203 247 277 79 220 68 267 300 280 247 214 230 229 235 237 234 236 234 233 232 234 232 232 233 232 233 231 233 229 226 223 227 231 229 228 233 241
248 200 192 188 224 169 235 158 300 216 113 44 319 69 264 306 265 245 238 235 241 245 244 241 242 240 239 237 238 233 233 235 235 234 234 234 231 232 233 234 232 228 231 234
238 225 170 212 190 190 298 89 42 53 79 53 260 136 291 216 229 247 256 249 253 256 251 249 250 249 244 242 242 241 235 235 236 234 233 234 232 233 231 232 228 229 228 229
321 253 242 182 291 111 78 57 338 341 3 219 169 92 234 269 264 226 260 275 281 282 264 255 252 250 249 243 243 241 240 235 235 234 233 232 232 234 237 237 233 226 228 223
84 324 1 114 208 253 153 150 162 228 229 260 88 238 247 230 285 281 285 285 302 309 312 261 256 257 252 248 247 243 240 238 234 233 232 232 231 234 237 238 236 233 232 228
177 265 293 228 206 149 226 202 191 118 25 67 247 297 306 301 285 315 323 359 354 353 347 327 314 278 256 251 247 245 243 240 236 234 231 232 231 233 237 236 238 235 232 236
253 305 263 296 350 47 171 161 97 3 230 255 288 278 235 287 343 337 5 1 358 358 348 341 332 321 298 259 252 247 242 243 238 235 234 234 233 231 238 235 242 234 234 235
36 127 287 342 202 212 340 278 43 124 146 180 207 256 215 19 351 8 358 6 5 3 2 350 334 326 312 277 259 253 247 242 240 238 237 236 234 230 235 232 239 234 233 232
27 154 266 235 269 350 205 314 127 129 274 219 167 263 144 95 63 23 21 9 10 12 10 9 354 331 321 304 276 260 248 244 243 243 239 237 236 230 232 231 234 229 233 232
328 334 348 334 355 18 51 27 124 125 80 214 146 261 144 63 47 19 20 11 11 9 9 8 10 4 332 308 283 270 262 255 246 242 241 240 238 233 232 233 235 232 231 229
133 78 181 207 260 334 303 320 303 171 189 248 224 277 307 2 359 355 6 7 7 11 9 5 4 5 5 342 302 279 268 260 252 247 244 243 241 236 234 235 236 235 229 228
93 251 204 239 252 280 288 282 255 237 236 237 257 241 19 335 325 332 355 359 4 4 6 5 2 357 358 359 347 300 284 268 257 253 253 246 243 239 235 235 237 233 227 227
29 257 203 262 260 256 260 270 267 273 265 254 254 216 302 312 336 2 2 2 360 358 1 1 358 355 350 352 354 346 298 283 268 260 256 255 249 240 237 234 234 230 228 226
260 189 74 257 275 339 312 250 253 268 48 333 20 331 328 328 335 349 355 2 357 354 355 354 352 350 348 342 346 351 336 291 275 268 259 253 252 248 241 236 234 227 226 223
211 129 153 254 352 208 227 13 48 96 65 26 19 13 341 323 323 324 353 353 351 349 347 347 347 345 345 342 336 337 343 327 292 279 269 259 255 250 245 242 233 225 223 219
182 141 212 208 214 290 328 21 10 7 57 359 317 306 324 321 312 297 330 339 335 336 338 335 333 335 335 338 334 329 331 334 322 292 282 273 262 250 248 246 240 230 221 202
94 77 129 154 232 251 259 344 328 269 224 16 338 299 323 327 302 283 313 321 324 326 329 327 325 320 324 327 328 323 323 318 315 314 293 275 265 261 256 248 240 234 226 203
336 20 206 201 257 285 10 330 339 269 303 330 330 327 321 304 293 299 308 308 313 317 315 321 325 328 314 329 322 319 317 313 299 288 287 281 283 267 259 248 242 238 230 223
211 32 258 56 274 274 13 351 25 285 311 307 322 321 306 310 309 309 310 311 320 322 315 312 315 321 318 316 325 320 317 309 304 299 285 281 276 267 248 235 223 218 221 241
278 181 218 185 235 338 325 304 310 308 299 299 310 312 309 308 313 316 312 312 314 314 315 315 315 318 314 311 309 317 318 323 318 309 306 294 270 250 238 226 216 217 208 226
335 87 236 9 350 313 312 318 324 314 307 308 306 306 305 303 307 309 308 304 306 312 310 307 310 316 313 309 305 306 318 333 336 339 317 312 259 238 231 213 208 210 222 223
219 355 241 261 289 310 304 305 311 316 315 310 309 305 302 302 297 300 300 296 295 302 305 306 311 316 315 309 304 302 299 321 332 349 20 8 347 218 221 216 207 227 209 195
199 203 170 248 290 284 289 305 312 310 308 309 306 305 302 293 288 290 289 294 292 291 299 295 297 310 309 313 302 297 295 304 307 320 322 65 35 115 183 213 213 230 211 208